Total_Precipitation_Accumulation
1.13 1.14 1.13 1.09 0.98 0.97 1.01 1.01 0.99 0.98 1.02 1.01 0.92 0.86 0.93 0.93 0.90 0.96 1.03 1.09 1.15 1.30 1.44 1.57 1.72 1.98 2.27 2.29 2.23 2.10 1.98 1.85 1.63 1.48 1.27 1.20 1.51 1.62 1.52 1.41 1.37 1.32 1.08
1.05 1.07 1.06 0.96 0.89 0.86 0.84 0.80 0.71 0.67 0.69 0.79 0.87 0.83 0.81 0.84 0.86 0.93 0.95 0.99 1.02 1.11 1.21 1.35 1.53 1.81 2.15 2.36 2.43 2.31 2.16 2.01 1.88 1.72 1.40 1.16 1.28 1.63 1.77 1.70 1.47 1.29 1.15
1.12 0.97 0.87 0.83 0.79 0.78 0.69 0.64 0.61 0.54 0.53 0.57 0.67 0.67 0.77 0.84 0.86 0.89 0.91 0.94 0.97 1.05 1.19 1.25 1.31 1.50 1.70 1.90 2.08 2.21 2.19 2.17 2.15 1.91 1.60 1.33 1.27 1.40 1.66 1.68 1.60 1.55 1.32
1.21 1.10 0.96 0.86 0.79 0.74 0.66 0.61 0.56 0.53 0.55 0.62 0.74 0.78 0.74 0.72 0.77 0.87 0.91 0.86 0.85 0.89 0.97 1.07 1.17 1.22 1.37 1.51 1.62 1.81 2.02 2.26 2.34 2.19 1.92 1.60 1.47 1.37 1.47 1.63 1.70 1.66 1.57
1.18 1.18 1.03 0.96 0.88 0.74 0.68 0.67 0.62 0.65 0.62 0.64 0.74 0.85 0.91 0.87 0.84 0.92 0.88 0.86 0.86 0.84 0.89 0.90 0.97 0.99 1.05 1.23 1.28 1.50 1.82 2.09 2.21 2.28 2.15 1.85 1.58 1.40 1.19 1.30 1.56 1.78 1.80
0.83 0.92 0.89 0.79 0.69 0.65 0.64 0.61 0.57 0.56 0.52 0.51 0.56 0.63 0.72 0.77 0.97 0.92 0.75 0.71 0.77 0.83 0.88 0.87 0.89 0.84 0.82 0.89 1.02 1.15 1.45 1.66 1.80 1.88 1.90 1.75 1.53 1.40 1.35 1.31 1.39 1.53 1.59
0.54 0.64 0.64 0.58 0.51 0.47 0.50 0.50 0.47 0.43 0.44 0.42 0.42 0.42 0.48 0.63 0.71 0.55 0.53 0.59 0.72 0.84 0.91 0.94 0.90 0.84 0.89 0.90 0.92 0.93 1.00 1.18 1.39 1.60 1.63 1.53 1.58 1.49 1.41 1.31 1.32 1.34 1.33
0.29 0.34 0.36 0.36 0.36 0.36 0.37 0.37 0.37 0.37 0.37 0.36 0.41 0.47 0.48 0.50 0.57 0.47 0.46 0.56 0.75 0.88 0.88 0.84 0.91 0.92 0.94 1.01 0.94 1.01 0.97 0.95 1.03 1.08 1.22 1.42 1.57 1.74 1.71 1.60 1.61 1.55 1.46
0.12 0.15 0.17 0.19 0.23 0.27 0.29 0.33 0.42 0.44 0.41 0.41 0.51 0.58 0.52 0.45 0.50 0.50 0.55 0.69 0.82 0.90 0.87 0.87 0.94 0.98 1.11 1.16 1.07 1.12 1.08 1.05 1.02 1.12 1.22 1.32 1.41 1.52 1.67 1.72 1.67 1.64 1.50
0.07 0.08 0.10 0.12 0.14 0.18 0.24 0.26 0.27 0.29 0.34 0.41 0.44 0.41 0.41 0.48 0.55 0.52 0.64 0.82 0.95 1.05 1.00 0.99 1.18 1.13 1.11 1.06 1.03 1.18 1.15 1.01 0.94 0.98 1.03 1.11 1.15 1.25 1.37 1.42 1.54 1.61 1.52
0.08 0.10 0.12 0.12 0.12 0.13 0.11 0.09 0.12 0.17 0.20 0.21 0.24 0.28 0.35 0.50 0.55 0.58 0.77 0.87 0.93 1.08 1.10 1.06 1.00 1.13 1.07 0.99 0.99 1.04 1.18 1.07 1.00 1.04 1.03 1.04 1.06 1.09 1.13 1.19 1.31 1.44 1.49
0.07 0.09 0.10 0.08 0.07 0.07 0.07 0.07 0.07 0.10 0.13 0.16 0.19 0.25 0.31 0.37 0.44 0.50 0.63 0.75 0.84 1.01 1.09 0.99 0.88 1.11 1.07 0.98 0.90 0.93 1.07 1.14 1.14 1.18 1.16 1.07 0.99 0.96 0.95 1.01 1.10 1.21 1.31
0.06 0.08 0.08 0.07 0.08 0.07 0.06 0.06 0.07 0.08 0.10 0.12 0.16 0.24 0.33 0.37 0.38 0.45 0.51 0.59 0.71 0.89 0.94 0.96 0.97 1.01 0.93 0.89 0.98 1.01 1.04 1.06 1.15 1.20 1.09 0.94 0.87 0.86 0.92 1.04 1.15 1.23 1.31
0.06 0.07 0.08 0.09 0.09 0.08 0.07 0.08 0.07 0.07 0.09 0.12 0.19 0.26 0.31 0.36 0.38 0.47 0.55 0.57 0.66 0.74 0.76 0.79 0.83 0.80 0.79 0.84 0.90 1.00 1.05 1.10 1.12 1.06 0.95 0.82 0.83 0.88 0.91 0.94 1.07 1.20 1.33
0.05 0.07 0.08 0.10 0.10 0.07 0.06 0.07 0.07 0.07 0.10 0.15 0.19 0.22 0.24 0.27 0.33 0.44 0.58 0.66 0.76 0.84 0.86 0.77 0.78 0.78 0.77 0.77 0.82 0.85 0.90 0.91 0.94 0.92 0.89 0.87 0.86 0.89 0.90 0.89 0.98 1.04 1.05
0.05 0.06 0.07 0.07 0.07 0.07 0.08 0.07 0.06 0.07 0.07 0.08 0.09 0.13 0.19 0.23 0.21 0.25 0.37 0.53 0.72 0.97 1.21 1.16 1.14 1.07 0.97 0.86 0.79 0.74 0.72 0.75 0.79 0.83 0.85 0.82 0.83 0.88 0.93 0.94 0.98 1.03 1.02
0.04 0.05 0.06 0.06 0.05 0.06 0.08 0.13 0.14 0.11 0.06 0.05 0.06 0.10 0.16 0.22 0.21 0.25 0.33 0.39 0.51 0.84 1.23 1.22 1.19 1.05 0.91 0.82 0.72 0.63 0.58 0.61 0.68 0.69 0.72 0.75 0.76 0.81 0.88 0.91 0.92 0.97 1.00
0.05 0.04 0.05 0.07 0.07 0.07 0.08 0.13 0.24 0.29 0.23 0.12 0.08 0.09 0.15 0.23 0.28 0.35 0.45 0.55 0.62 0.76 0.90 0.91 0.84 0.77 0.70 0.59 0.55 0.52 0.49 0.54 0.62 0.64 0.65 0.66 0.68 0.73 0.76 0.84 0.86 0.87 0.92
0.05 0.06 0.08 0.11 0.10 0.08 0.09 0.16 0.22 0.16 0.15 0.16 0.15 0.11 0.12 0.16 0.20 0.27 0.39 0.50 0.52 0.55 0.56 0.52 0.46 0.45 0.46 0.44 0.42 0.42 0.42 0.46 0.53 0.61 0.63 0.62 0.62 0.65 0.69 0.74 0.81 0.89 0.89
0.03 0.05 0.08 0.14 0.14 0.09 0.10 0.14 0.13 0.12 0.14 0.16 0.16 0.16 0.17 0.16 0.17 0.20 0.26 0.30 0.31 0.32 0.31 0.31 0.30 0.30 0.34 0.34 0.37 0.38 0.39 0.42 0.47 0.54 0.58 0.61 0.61 0.60 0.63 0.70 0.74 0.77 0.76
0.03 0.04 0.06 0.09 0.13 0.11 0.12 0.13 0.12 0.12 0.14 0.14 0.14 0.15 0.18 0.21 0.22 0.21 0.21 0.20 0.23 0.25 0.27 0.28 0.26 0.29 0.32 0.33 0.36 0.40 0.44 0.46 0.48 0.55 0.57 0.58 0.62 0.63 0.64 0.67 0.71 0.71 0.73
0.04 0.04 0.05 0.08 0.10 0.10 0.11 0.13 0.14 0.13 0.12 0.13 0.14 0.15 0.17 0.22 0.22 0.21 0.20 0.20 0.20 0.22 0.28 0.31 0.32 0.33 0.33 0.35 0.40 0.44 0.46 0.48 0.51 0.55 0.61 0.63 0.62 0.63 0.64 0.66 0.70 0.72 0.72
0.05 0.05 0.06 0.07 0.09 0.08 0.08 0.10 0.13 0.15 0.14 0.15 0.16 0.16 0.17 0.19 0.21 0.25 0.25 0.25 0.28 0.31 0.29 0.30 0.34 0.36 0.35 0.37 0.41 0.47 0.53 0.54 0.57 0.62 0.68 0.68 0.64 0.63 0.66 0.65 0.67 0.71 0.73
0.06 0.06 0.06 0.07 0.09 0.09 0.10 0.10 0.12 0.13 0.16 0.19 0.20 0.19 0.20 0.22 0.25 0.24 0.25 0.31 0.33 0.32 0.31 0.31 0.33 0.37 0.39 0.41 0.43 0.46 0.49 0.53 0.58 0.63 0.68 0.71 0.69 0.65 0.68 0.72 0.73 0.75 0.81
0.08 0.08 0.08 0.10 0.12 0.13 0.15 0.16 0.15 0.16 0.19 0.22 0.21 0.21 0.20 0.21 0.23 0.22 0.23 0.28 0.31 0.30 0.30 0.31 0.33 0.36 0.39 0.41 0.44 0.46 0.52 0.56 0.59 0.62 0.65 0.72 0.74 0.73 0.73 0.79 0.85 0.87 0.91
0.12 0.13 0.14 0.15 0.17 0.19 0.20 0.20 0.21 0.21 0.21 0.21 0.21 0.23 0.24 0.24 0.26 0.25 0.25 0.27 0.30 0.31 0.32 0.33 0.34 0.36 0.37 0.38 0.43 0.50 0.54 0.52 0.54 0.60 0.65 0.73 0.80 0.82 0.83 0.84 0.85 0.89 0.92